| time (UTC) | temp C | wind direction | speed KPH | gust KPH | rain 1hr cm | rain 24hr cm | rain mn cm | humidity % | barometer mb |
| 20260507073057 | 10 | 0 | 0.0 | 0.0 | 0.00 | 0.15 | 0.00 | 84 | 1015.6 |
| 20260507072056 | 10 | 0 | 0.0 | 0.0 | 0.00 | 0.15 | 0.00 | 85 | 1015.6 |
| 20260507070056 | 10 | 0 | 0.0 | 0.0 | 0.00 | 0.18 | 0.00 | 85 | 1015.5 |
| 20260507065055 | 9 | 0 | 0.0 | 0.0 | 0.00 | 0.18 | 0.00 | 88 | 1015.5 |
| 20260507064055 | 9 | 0 | 0.0 | 0.0 | 0.00 | 0.20 | 0.00 | 91 | 1015.4 |
| 20260507063053 | 9 | 0 | 0.0 | 0.0 | 0.00 | 0.20 | 0.00 | 94 | 1015.3 |
| 20260507061056 | 8 | 0 | 0.0 | 0.0 | 0.00 | 0.23 | 0.00 | 97 | 1015.1 |
| 20260507060055 | 8 | 0 | 0.0 | 0.0 | 0.00 | 0.25 | 0.00 | 97 | 1015.1 |
| 20260507055052 | 8 | 0 | 0.0 | 0.0 | 0.00 | 0.25 | 0.00 | 98 | 1015.0 |
| 20260507054054 | 8 | 0 | 0.0 | 0.0 | 0.00 | 0.30 | 0.00 | 98 | 1014.9 |
| 20260507053054 | 8 | 0 | 0.0 | 0.0 | 0.00 | 0.33 | 0.00 | 98 | 1014.9 |
| 20260507052055 | 8 | 0 | 0.0 | 0.0 | 0.00 | 0.36 | 0.00 | 99 | 1014.8 |
| 20260507051055 | 8 | 0 | 0.0 | 0.0 | 0.00 | 0.43 | 0.00 | 99 | 1014.6 |
| 20260507050055 | 8 | 0 | 0.0 | 0.0 | 0.00 | 0.43 | 0.00 | 99 | 1014.6 |
| 20260507044056 | 7 | 0 | 0.0 | 0.0 | 0.00 | 0.51 | 0.00 | 99 | 1014.4 |
| 20260507043056 | 7 | 0 | 0.0 | 0.0 | 0.00 | 0.51 | 0.00 | 99 | 1014.3 |
| 20260507042056 | 7 | 0 | 0.0 | 0.0 | 0.00 | 0.53 | 0.00 | 99 | 1014.2 |
| 20260507040056 | 7 | 0 | 0.0 | 0.0 | 0.00 | 0.58 | 0.00 | 99 | 1014.1 |
| 20260507035056 | 7 | 0 | 0.0 | 0.0 | 0.00 | 0.64 | 0.00 | 99 | 1014.0 |
| 20260507033054 | 7 | 0 | 0.0 | 0.0 | 0.00 | 0.64 | 0.00 | 98 | 1014.0 |
| 20260507032056 | 7 | 0 | 0.0 | 0.0 | 0.00 | 0.64 | 0.00 | 98 | 1013.9 |
| 20260507031054 | 7 | 0 | 0.0 | 0.0 | 0.00 | 0.66 | 0.00 | 98 | 1013.8 |
| 20260507030055 | 7 | 0 | 0.0 | 0.0 | 0.00 | 0.66 | 0.00 | 98 | 1013.8 |
| 20260507025054 | 7 | 0 | 0.0 | 0.0 | 0.00 | 0.69 | 0.00 | 98 | 1013.8 |
| 20260507024054 | 7 | 0 | 0.0 | 0.0 | 0.00 | 0.69 | 0.00 | 98 | 1013.8 |
| 20260507023055 | 7 | 0 | 0.0 | 0.0 | 0.00 | 0.69 | 0.00 | 98 | 1013.7 |
| 20260507022055 | 7 | 0 | 0.0 | 0.0 | 0.00 | 0.71 | 0.00 | 98 | 1013.7 |
| 20260507021056 | 7 | 0 | 0.0 | 0.0 | 0.00 | 0.71 | 0.00 | 98 | 1013.5 |
| 20260507020055 | 7 | 0 | 0.0 | 0.0 | 0.00 | 0.74 | 0.00 | 98 | 1013.4 |
| 20260507015054 | 7 | 0 | 0.0 | 0.0 | 0.00 | 0.74 | 0.00 | 98 | 1013.4 |
| 20260507014056 | 8 | 0 | 0.0 | 0.0 | 0.00 | 0.76 | 0.00 | 98 | 1013.4 |
| 20260507013054 | 8 | 0 | 0.0 | 0.0 | 0.00 | 0.76 | 0.00 | 98 | 1013.5 |
| 20260507012053 | 8 | 0 | 0.0 | 0.0 | 0.00 | 0.79 | 0.00 | 98 | 1013.5 |
| 20260507005055 | 8 | 0 | 0.0 | 0.0 | 0.00 | 0.84 | 0.00 | 98 | 1013.4 |
| 20260507004056 | 8 | 0 | 0.0 | 0.0 | 0.00 | 0.84 | 0.00 | 98 | 1013.4 |
| 20260507002056 | 8 | 0 | 0.0 | 0.0 | 0.00 | 0.89 | 0.00 | 98 | 1013.3 |
| 20260507001055 | 8 | 0 | 0.0 | 0.0 | 0.00 | 0.89 | 0.00 | 97 | 1013.3 |
| 20260507000057 | 8 | 0 | 0.0 | 0.0 | 0.00 | 0.91 | 0.00 | 97 | 1013.2 |
| 20260506234057 | 7 | 0 | 0.0 | 0.0 | 0.00 | 0.97 | 0.00 | 97 | 1013.1 |
| 20260506233057 | 7 | 0 | 0.0 | 0.0 | 0.00 | 0.99 | 0.00 | 97 | 1013.0 |
| 20260506230057 | 7 | 0 | 0.0 | 0.0 | 0.00 | 1.04 | 0.00 | 98 | 1012.9 |
| 20260506225055 | 7 | 0 | 0.0 | 0.0 | 0.00 | 1.09 | 0.00 | 98 | 1012.9 |
| 20260506224056 | 7 | 0 | 0.0 | 0.0 | 0.00 | 1.12 | 0.00 | 98 | 1012.7 |
| 20260506222057 | 7 | 0 | 0.0 | 0.0 | 0.00 | 1.17 | 0.00 | 98 | 1012.6 |
| 20260506221056 | 7 | 0 | 0.0 | 0.0 | 0.00 | 1.17 | 0.00 | 97 | 1012.5 |
| 20260506215058 | 7 | 0 | 0.0 | 0.0 | 0.00 | 1.22 | 1.19 | 97 | 1012.4 |
| 20260506214058 | 7 | 0 | 0.0 | 0.0 | 0.00 | 1.24 | 1.19 | 97 | 1012.3 |
| 20260506213055 | 6 | 0 | 0.0 | 0.0 | 0.00 | 1.27 | 1.19 | 97 | 1012.3 |
| 20260506212058 | 6 | 0 | 0.0 | 0.0 | 0.00 | 1.27 | 1.19 | 96 | 1012.2 |
| 20260506211100 | 6 | 0 | 0.0 | 0.0 | 0.00 | 1.27 | 1.19 | 95 | 1012.0 |
| 20260506210059 | 7 | 0 | 0.0 | 0.0 | 0.00 | 1.30 | 1.19 | 95 | 1011.9 |
| 20260506204058 | 7 | 0 | 0.0 | 0.0 | 0.00 | 1.35 | 1.19 | 94 | 1011.8 |
| 20260506203100 | 7 | 0 | 0.0 | 0.0 | 0.00 | 1.37 | 1.19 | 93 | 1011.8 |
| 20260506202100 | 8 | 0 | 0.0 | 0.0 | 0.00 | 1.37 | 1.19 | 91 | 1011.7 |
| 20260506201101 | 8 | 0 | 0.0 | 0.0 | 0.00 | 1.37 | 1.19 | 88 | 1011.6 |
| 20260506200059 | 8 | 0 | 0.0 | 0.0 | 0.00 | 1.40 | 1.19 | 89 | 1011.5 |
| 20260506194100 | 9 | 0 | 0.0 | 0.0 | 0.00 | 1.45 | 1.19 | 94 | 1011.2 |
| 20260506193059 | 9 | 0 | 0.0 | 0.0 | 0.00 | 1.45 | 1.19 | 93 | 1011.2 |
| 20260506192058 | 10 | 0 | 0.0 | 0.0 | 0.00 | 1.50 | 1.19 | 92 | 1011.0 |
| 20260506191058 | 10 | 0 | 0.0 | 0.0 | 0.00 | 1.50 | 1.19 | 92 | 1010.9 |
| 20260506190100 | 10 | 0 | 0.0 | 0.0 | 0.00 | 1.50 | 1.19 | 91 | 1010.8 |
| 20260506185059 | 10 | 0 | 0.0 | 0.0 | 0.00 | 1.52 | 1.19 | 90 | 1010.7 |
| 20260506183059 | 11 | 0 | 0.0 | 0.0 | 0.00 | 1.55 | 1.19 | 84 | 1010.4 |
| 20260506182059 | 11 | 0 | 0.0 | 0.0 | 0.00 | 1.55 | 1.19 | 80 | 1010.3 |
| 20260506181057 | 11 | 0 | 0.0 | 0.0 | 0.00 | 1.60 | 1.19 | 80 | 1010.2 |
| 20260506180059 | 11 | 0 | 0.0 | 0.0 | 0.00 | 1.60 | 1.19 | 84 | 1010.0 |
| 20260506173057 | 11 | 0 | 0.0 | 0.0 | 0.00 | 1.65 | 1.19 | 89 | 1009.7 |
| 20260506172059 | 12 | 0 | 0.0 | 0.0 | 0.00 | 1.65 | 1.19 | 86 | 1009.5 |
| 20260506171057 | 12 | 0 | 0.0 | 0.0 | 0.00 | 1.68 | 1.19 | 84 | 1009.4 |
| 20260506170055 | 12 | 0 | 0.0 | 0.0 | 0.00 | 1.68 | 1.19 | 85 | 1009.4 |
| 20260506165055 | 12 | 0 | 0.0 | 0.0 | 0.00 | 1.70 | 1.19 | 84 | 1009.3 |
| 20260506164057 | 12 | 0 | 0.0 | 0.0 | 0.00 | 1.70 | 1.19 | 81 | 1009.2 |
| 20260506163056 | 12 | 0 | 0.0 | 0.0 | 0.00 | 1.70 | 1.19 | 83 | 1009.2 |
| 20260506162058 | 12 | 0 | 0.0 | 0.0 | 0.00 | 1.70 | 1.19 | 83 | 1009.3 |
| 20260506161057 | 12 | 0 | 0.0 | 0.0 | 0.00 | 1.70 | 1.19 | 81 | 1009.3 |
| 20260506160055 | 12 | 0 | 0.0 | 0.0 | 0.00 | 1.70 | 1.19 | 76 | 1009.2 |
| 20260506155057 | 12 | 0 | 0.0 | 0.0 | 0.00 | 1.70 | 1.19 | 77 | 1009.2 |
| 20260506154059 | 12 | 0 | 0.0 | 0.0 | 0.00 | 1.70 | 1.19 | 78 | 1009.2 |
| 20260506153057 | 12 | 0 | 0.0 | 0.0 | 0.00 | 1.70 | 1.19 | 78 | 1009.1 |
| 20260506152057 | 12 | 0 | 0.0 | 0.0 | 0.00 | 1.70 | 1.19 | 82 | 1009.1 |
| 20260506151058 | 12 | 0 | 0.0 | 0.0 | 0.00 | 1.70 | 1.19 | 84 | 1009.1 |
| 20260506150055 | 11 | 0 | 0.0 | 0.0 | 0.00 | 1.70 | 1.19 | 86 | 1009.1 |
| 20260506144056 | 11 | 0 | 0.0 | 0.0 | 0.00 | 1.70 | 1.19 | 91 | 1009.2 |
| 20260506142055 | 11 | 0 | 0.0 | 0.0 | 0.00 | 1.70 | 1.19 | 91 | 1009.3 |
| 20260506141056 | 11 | 0 | 0.0 | 0.0 | 0.00 | 1.70 | 1.19 | 90 | 1009.3 |
| 20260506135057 | 11 | 0 | 0.0 | 0.0 | 0.00 | 1.70 | 1.19 | 89 | 1009.3 |
| 20260506133057 | 11 | 0 | 0.0 | 0.0 | 0.00 | 1.70 | 1.19 | 90 | 1009.3 |
| 20260506132058 | 11 | 0 | 0.0 | 0.0 | 0.00 | 1.70 | 1.19 | 87 | 1009.3 |
| 20260506131058 | 11 | 0 | 0.0 | 0.0 | 0.00 | 1.70 | 1.19 | 84 | 1009.2 |
| 20260506125056 | 11 | 0 | 0.0 | 0.0 | 0.00 | 1.70 | 1.19 | 81 | 1009.1 |
| 20260506124055 | 11 | 0 | 0.0 | 0.0 | 0.00 | 1.70 | 1.19 | 82 | 1009.1 |
| 20260506123057 | 11 | 0 | 0.0 | 0.0 | 0.00 | 1.70 | 1.19 | 84 | 1009.0 |
| 20260506122056 | 11 | 0 | 0.0 | 0.0 | 0.00 | 1.70 | 1.19 | 85 | 1008.9 |
| 20260506121054 | 11 | 0 | 0.0 | 0.0 | 0.00 | 1.70 | 1.19 | 87 | 1008.9 |
| 20260506120054 | 11 | 0 | 0.0 | 0.0 | 0.00 | 1.70 | 1.19 | 89 | 1008.9 |
| 20260506115056 | 10 | 0 | 0.0 | 0.0 | 0.00 | 1.70 | 1.19 | 90 | 1008.9 |
| 20260506114057 | 10 | 0 | 0.0 | 0.0 | 0.00 | 1.70 | 1.19 | 93 | 1008.9 |
| 20260506113057 | 10 | 0 | 0.0 | 0.0 | 0.00 | 1.70 | 1.19 | 94 | 1008.9 |
| 20260506112057 | 10 | 0 | 0.0 | 0.0 | 0.00 | 1.70 | 1.19 | 92 | 1008.9 |
| 20260506110056 | 10 | 0 | 0.0 | 0.0 | 0.00 | 1.70 | 1.19 | 93 | 1009.0 |
| 20260506105055 | 10 | 0 | 0.0 | 0.0 | 0.03 | 1.70 | 1.19 | 95 | 1009.1 |
| 20260506103057 | 9 | 0 | 0.0 | 0.0 | 0.03 | 1.70 | 1.19 | 95 | 1009.0 |
| 20260506101055 | 9 | 0 | 0.0 | 0.0 | 0.05 | 1.70 | 1.19 | 96 | 1008.9 |
| 20260506095056 | 9 | 0 | 0.0 | 0.0 | 0.08 | 1.70 | 1.19 | 97 | 1008.7 |
| 20260506094056 | 9 | 0 | 0.0 | 0.0 | 0.08 | 1.68 | 1.17 | 97 | 1008.7 |
| 20260506093055 | 8 | 0 | 0.0 | 0.0 | 0.08 | 1.68 | 1.17 | 97 | 1008.6 |
| 20260506092055 | 8 | 0 | 0.0 | 0.0 | 0.08 | 1.68 | 1.17 | 97 | 1008.5 |
| 20260506091055 | 8 | 0 | 0.0 | 0.0 | 0.08 | 1.65 | 1.17 | 97 | 1008.5 |
| 20260506090057 | 8 | 0 | 0.0 | 0.0 | 0.10 | 1.65 | 1.17 | 97 | 1008.4 |
| 20260506085055 | 8 | 0 | 0.0 | 0.0 | 0.08 | 1.65 | 1.14 | 98 | 1008.3 |
| 20260506084055 | 8 | 0 | 0.0 | 0.0 | 0.08 | 1.63 | 1.12 | 98 | 1008.2 |
| 20260506082054 | 8 | 0 | 0.0 | 0.0 | 0.05 | 1.60 | 1.09 | 98 | 1008.1 |
| 20260506081054 | 8 | 0 | 0.0 | 0.0 | 0.08 | 1.60 | 1.09 | 99 | 1008.0 |